Precipitable_Water
0.18 0.17 0.19 0.21 0.22 0.23 0.24 0.25 0.22 0.26 0.28 0.30 0.34 0.36 0.40 0.41 0.43 0.43 0.44 0.45 0.46 0.48 0.50 0.53 0.55 0.58 0.61 0.62 0.64 0.66 0.68 0.69 0.70 0.73 0.75 0.78 0.79 0.76 0.72 0.73 0.77 0.91 0.96 1.04
0.14 0.17 0.18 0.19 0.21 0.21 0.22 0.26 0.26 0.28 0.28 0.37 0.39 0.41 0.40 0.40 0.41 0.41 0.43 0.44 0.46 0.47 0.49 0.51 0.52 0.54 0.56 0.59 0.61 0.64 0.65 0.65 0.68 0.72 0.74 0.77 0.79 0.80 0.84 0.77 0.78 0.91 0.95 0.92
0.12 0.24 0.27 0.20 0.24 0.27 0.29 0.33 0.31 0.26 0.33 0.39 0.37 0.37 0.38 0.39 0.41 0.41 0.42 0.42 0.41 0.42 0.44 0.46 0.47 0.50 0.51 0.53 0.58 0.62 0.63 0.65 0.67 0.69 0.70 0.74 0.76 0.76 0.80 0.79 0.82 0.84 0.85 0.89
0.19 0.24 0.15 0.25 0.35 0.33 0.32 0.35 0.38 0.35 0.37 0.39 0.38 0.40 0.41 0.42 0.41 0.40 0.38 0.34 0.32 0.32 0.30 0.31 0.32 0.34 0.37 0.40 0.43 0.47 0.51 0.56 0.63 0.65 0.67 0.69 0.71 0.73 0.74 0.73 0.77 0.79 0.80 0.82
0.20 0.21 0.26 0.27 0.31 0.32 0.32 0.31 0.39 0.36 0.38 0.39 0.40 0.40 0.39 0.42 0.39 0.35 0.31 0.28 0.26 0.26 0.24 0.24 0.23 0.22 0.22 0.23 0.24 0.26 0.28 0.32 0.36 0.43 0.49 0.55 0.62 0.68 0.71 0.70 0.73 0.75 0.75 0.76
0.24 0.20 0.18 0.31 0.35 0.41 0.40 0.26 0.40 0.38 0.37 0.37 0.38 0.31 0.35 0.40 0.36 0.31 0.26 0.24 0.21 0.21 0.21 0.19 0.19 0.19 0.17 0.16 0.18 0.18 0.21 0.20 0.22 0.23 0.25 0.30 0.37 0.39 0.43 0.47 0.54 0.59 0.64 0.67
0.23 0.22 0.26 0.35 0.38 0.40 0.25 0.29 0.41 0.40 0.39 0.38 0.36 0.38 0.40 0.37 0.31 0.25 0.21 0.20 0.19 0.18 0.16 0.16 0.17 0.16 0.15 0.15 0.16 0.19 0.19 0.19 0.16 0.17 0.18 0.20 0.22 0.24 0.26 0.27 0.27 0.29 0.33 0.36
0.25 0.22 0.20 0.38 0.37 0.29 0.38 0.42 0.42 0.44 0.42 0.40 0.41 0.40 0.37 0.31 0.25 0.22 0.19 0.18 0.16 0.15 0.14 0.16 0.16 0.15 0.15 0.15 0.17 0.18 0.18 0.18 0.18 0.17 0.16 0.15 0.15 0.17 0.19 0.20 0.21 0.20 0.22 0.22
0.31 0.29 0.39 0.42 0.42 0.44 0.43 0.42 0.43 0.43 0.43 0.41 0.38 0.36 0.32 0.27 0.22 0.19 0.18 0.17 0.17 0.14 0.14 0.15 0.15 0.16 0.14 0.16 0.18 0.16 0.17 0.17 0.17 0.19 0.18 0.17 0.15 0.14 0.14 0.15 0.16 0.17 0.17 0.18
0.29 0.33 0.35 0.39 0.42 0.44 0.43 0.43 0.44 0.43 0.41 0.39 0.36 0.34 0.29 0.24 0.20 0.17 0.16 0.15 0.15 0.14 0.13 0.14 0.16 0.15 0.16 0.16 0.17 0.18 0.16 0.18 0.18 0.18 0.18 0.18 0.17 0.16 0.14 0.13 0.13 0.13 0.14 0.14
0.28 0.33 0.36 0.38 0.41 0.44 0.42 0.44 0.43 0.42 0.40 0.39 0.35 0.31 0.27 0.21 0.18 0.16 0.15 0.14 0.14 0.13 0.13 0.14 0.15 0.15 0.16 0.17 0.17 0.17 0.17 0.17 0.18 0.18 0.18 0.19 0.18 0.18 0.16 0.16 0.15 0.13 0.13 0.14
0.26 0.36 0.36 0.37 0.42 0.44 0.41 0.42 0.41 0.40 0.38 0.37 0.34 0.29 0.25 0.19 0.16 0.14 0.13 0.13 0.12 0.13 0.12 0.13 0.14 0.14 0.15 0.16 0.16 0.16 0.17 0.17 0.17 0.17 0.17 0.17 0.17 0.18 0.20 0.20 0.18 0.16 0.15 0.14
0.34 0.41 0.42 0.43 0.45 0.45 0.41 0.42 0.41 0.39 0.38 0.35 0.32 0.28 0.20 0.15 0.14 0.12 0.12 0.12 0.12 0.12 0.13 0.12 0.12 0.13 0.15 0.16 0.16 0.16 0.16 0.17 0.17 0.16 0.16 0.16 0.16 0.15 0.14 0.17 0.19 0.18 0.16 0.14
0.38 0.40 0.39 0.42 0.41 0.44 0.43 0.42 0.41 0.39 0.36 0.33 0.29 0.24 0.19 0.14 0.13 0.12 0.11 0.12 0.12 0.13 0.12 0.12 0.12 0.12 0.15 0.17 0.17 0.16 0.14 0.16 0.17 0.16 0.15 0.16 0.16 0.15 0.15 0.14 0.13 0.13 0.16 0.14
0.37 0.40 0.42 0.43 0.44 0.43 0.43 0.40 0.36 0.34 0.32 0.30 0.28 0.22 0.17 0.14 0.12 0.12 0.12 0.12 0.13 0.13 0.12 0.12 0.11 0.12 0.14 0.16 0.17 0.17 0.15 0.14 0.16 0.16 0.15 0.15 0.15 0.15 0.14 0.14 0.13 0.13 0.13 0.12
0.37 0.39 0.41 0.40 0.41 0.42 0.41 0.38 0.35 0.33 0.31 0.30 0.25 0.20 0.16 0.13 0.12 0.12 0.13 0.14 0.13 0.11 0.12 0.12 0.12 0.12 0.13 0.15 0.16 0.16 0.17 0.15 0.15 0.16 0.15 0.14 0.14 0.14 0.13 0.13 0.13 0.12 0.12 0.12
0.34 0.35 0.37 0.38 0.40 0.40 0.39 0.39 0.36 0.34 0.31 0.28 0.23 0.18 0.14 0.13 0.12 0.12 0.12 0.12 0.12 0.12 0.13 0.12 0.12 0.13 0.12 0.14 0.15 0.16 0.16 0.16 0.15 0.16 0.15 0.14 0.15 0.14 0.14 0.13 0.13 0.12 0.12 0.13
0.39 0.41 0.41 0.41 0.40 0.40 0.40 0.39 0.37 0.34 0.31 0.27 0.21 0.16 0.13 0.12 0.12 0.12 0.11 0.12 0.12 0.12 0.12 0.12 0.13 0.14 0.13 0.13 0.15 0.16 0.16 0.16 0.16 0.16 0.16 0.15 0.15 0.15 0.14 0.14 0.13 0.13 0.13 0.13
0.41 0.42 0.44 0.43 0.42 0.41 0.40 0.38 0.36 0.35 0.32 0.24 0.17 0.13 0.13 0.13 0.12 0.12 0.12 0.13 0.14 0.14 0.12 0.13 0.14 0.14 0.14 0.13 0.13 0.16 0.16 0.16 0.16 0.16 0.16 0.15 0.15 0.15 0.14 0.15 0.14 0.13 0.13 0.12
0.40 0.43 0.45 0.44 0.43 0.42 0.39 0.38 0.37 0.35 0.29 0.20 0.15 0.13 0.12 0.13 0.13 0.12 0.14 0.14 0.14 0.13 0.14 0.13 0.14 0.15 0.15 0.15 0.13 0.16 0.16 0.16 0.15 0.16 0.15 0.15 0.15 0.14 0.15 0.14 0.14 0.13 0.13 0.13
0.41 0.42 0.42 0.42 0.41 0.41 0.40 0.40 0.37 0.31 0.24 0.17 0.14 0.13 0.13 0.14 0.14 0.14 0.16 0.17 0.18 0.15 0.14 0.15 0.15 0.15 0.14 0.13 0.14 0.16 0.16 0.15 0.15 0.15 0.15 0.14 0.14 0.14 0.13 0.13 0.13 0.12 0.12 0.12
0.42 0.41 0.41 0.41 0.40 0.40 0.40 0.38 0.34 0.27 0.18 0.15 0.15 0.14 0.14 0.13 0.14 0.15 0.18 0.17 0.17 0.15 0.14 0.16 0.17 0.16 0.15 0.13 0.15 0.17 0.16 0.16 0.16 0.15 0.14 0.14 0.13 0.12 0.12 0.12 0.12 0.12 0.12 0.12
0.40 0.40 0.39 0.38 0.37 0.37 0.36 0.34 0.27 0.20 0.16 0.14 0.14 0.14 0.15 0.15 0.16 0.17 0.17 0.18 0.18 0.16 0.15 0.17 0.17 0.16 0.14 0.15 0.17 0.16 0.16 0.15 0.14 0.14 0.14 0.13 0.12 0.12 0.11 0.11 0.11 0.11 0.11 0.11
0.39 0.37 0.36 0.36 0.36 0.34 0.31 0.27 0.22 0.17 0.15 0.14 0.13 0.16 0.19 0.18 0.17 0.18 0.18 0.17 0.17 0.16 0.16 0.17 0.17 0.16 0.15 0.16 0.16 0.16 0.15 0.14 0.13 0.13 0.12 0.12 0.11 0.10 0.10 0.10 0.10 0.10 0.09 0.09
0.40 0.38 0.37 0.34 0.32 0.31 0.28 0.23 0.18 0.15 0.14 0.14 0.15 0.17 0.19 0.21 0.21 0.20 0.20 0.19 0.17 0.17 0.18 0.18 0.17 0.16 0.16 0.16 0.15 0.14 0.13 0.13 0.12 0.12 0.11 0.10 0.10 0.10 0.09 0.09 0.09 0.08 0.08 0.08
0.39 0.38 0.37 0.35 0.32 0.30 0.26 0.22 0.17 0.15 0.14 0.15 0.16 0.17 0.19 0.20 0.20 0.20 0.19 0.18 0.18 0.18 0.20 0.20 0.17 0.16 0.16 0.14 0.13 0.13 0.12 0.12 0.11 0.11 0.10 0.09 0.09 0.09 0.08 0.08 0.08 0.08 0.07 0.07
0.40 0.39 0.37 0.35 0.33 0.29 0.25 0.21 0.18 0.16 0.17 0.19 0.19 0.22 0.22 0.22 0.22 0.22 0.22 0.22 0.21 0.20 0.19 0.17 0.17 0.17 0.15 0.13 0.12 0.12 0.11 0.11 0.10 0.09 0.09 0.09 0.08 0.08 0.07 0.07 0.07 0.07 0.07 0.07
Wind_Speed
18 21 22 20 19 18 17 18 17 14 13 9 10 11 11 8 7 7 9 10 12 12 13 14 16 18 18 20 21 23 22 21 14 8 9 7 5 2 1 2 6 11 14 16
16 18 19 22 22 22 20 18 18 15 14 10 10 7 3 3 4 6 7 9 11 12 13 15 17 18 20 21 21 22 24 25 20 14 11 10 8 6 5 2 0 7 8 9
11 13 11 15 16 17 16 16 15 16 9 7 4 2 0 1 3 5 7 8 10 11 12 14 16 18 20 21 22 22 23 25 27 24 21 11 10 10 9 8 6 5 5 5
11 12 13 8 7 7 9 9 9 8 9 7 5 5 2 2 3 4 6 8 9 10 12 14 16 17 19 20 22 23 24 24 25 26 27 23 15 11 11 8 7 6 3 1
9 11 9 9 8 6 5 5 8 9 9 8 9 7 4 3 4 5 6 8 9 11 12 14 15 17 18 20 22 23 24 24 24 25 25 26 25 18 12 13 11 9 6 4
10 9 7 2 5 5 5 6 9 10 11 11 11 5 3 3 4 6 7 8 10 11 12 14 15 16 18 19 21 23 23 24 23 23 24 23 23 23 20 17 16 13 11 10
14 11 8 6 6 6 6 3 9 10 11 11 9 4 7 6 6 7 7 8 10 11 12 14 15 16 17 19 20 21 22 22 24 24 24 22 22 21 20 18 17 16 15 14
15 13 14 9 8 8 5 5 7 7 10 10 9 8 7 7 6 6 6 7 9 10 11 13 14 15 16 17 18 19 20 21 21 23 23 23 22 21 19 18 17 16 16 14
8 8 8 9 7 8 7 7 9 10 11 11 10 9 9 7 6 5 5 6 7 8 9 11 13 14 15 16 16 17 18 19 20 19 21 21 22 21 20 19 18 17 16 16
14 13 12 11 10 9 8 8 10 12 12 12 11 10 9 8 6 5 4 5 5 6 8 9 11 13 14 15 15 15 17 18 19 19 19 20 20 21 21 21 20 19 18 18
12 13 13 13 13 11 10 11 12 13 13 12 11 10 9 8 6 5 4 3 4 5 6 8 10 11 13 14 15 15 15 17 18 19 20 19 20 20 21 21 22 22 22 22
13 14 12 14 15 15 14 14 15 14 14 12 12 11 10 8 6 5 3 2 3 5 6 7 8 10 12 13 14 15 16 17 18 19 20 21 21 21 22 22 23 24 25 25
12 13 10 13 16 17 16 16 16 15 14 14 12 11 10 8 6 4 2 1 2 3 5 6 8 9 11 12 14 15 16 18 19 20 21 22 23 23 24 25 25 26 27 28
10 10 11 15 16 18 17 17 16 16 15 14 12 11 9 8 6 3 1 1 2 3 4 6 7 9 11 12 14 16 18 19 20 21 23 24 24 25 26 27 28 29 29 31
13 11 14 15 18 18 18 18 17 16 15 13 12 11 10 8 6 4 2 2 2 3 5 6 8 10 12 13 15 17 19 20 22 23 24 25 27 28 29 29 30 31 32 33
14 12 15 17 19 19 19 18 18 17 16 14 13 11 10 9 7 5 4 4 4 4 6 7 9 11 13 15 17 18 20 22 24 25 26 28 30 30 32 32 33 35 36 37
13 15 16 18 19 20 20 19 18 17 16 15 13 12 11 9 7 6 5 4 4 5 6 8 11 13 15 17 19 20 22 24 26 27 29 31 32 33 34 35 36 38 39 40
13 13 15 18 19 19 19 18 18 17 16 15 14 12 11 10 8 8 6 6 6 7 9 11 13 15 17 19 21 23 25 27 29 30 32 33 34 35 37 38 39 41 42 43
13 13 14 17 19 19 19 18 17 16 16 16 14 13 11 10 10 9 8 8 9 10 12 14 16 18 20 21 24 25 27 29 31 32 34 36 36 37 39 41 42 43 44 45
12 12 14 16 17 18 17 17 17 17 17 16 15 13 12 11 11 10 10 10 11 12 14 16 18 20 22 24 27 28 30 32 33 35 36 37 38 40 42 43 44 45 46 47
12 12 13 15 15 16 17 17 18 18 18 17 15 14 13 12 12 12 12 13 14 15 17 18 20 22 24 28 29 30 32 34 35 36 38 39 41 42 44 45 46 46 47 47
12 12 12 14 15 15 16 17 17 18 17 16 15 13 13 13 13 14 14 14 15 17 18 20 22 25 28 30 31 33 34 35 37 38 40 41 43 45 45 46 47 47 47 47
11 11 12 12 14 15 15 16 17 17 17 16 15 14 14 14 14 15 16 16 17 18 21 22 25 27 30 32 33 34 35 37 38 40 41 43 44 45 46 47 47 47 47 46
11 11 11 12 13 14 15 16 16 16 15 15 15 15 14 14 15 16 16 17 20 22 24 26 28 30 32 33 34 35 37 38 39 41 43 44 45 46 46 46 46 46 46 45
9 10 10 12 12 13 14 15 15 15 15 15 15 16 16 16 16 17 18 20 22 24 25 27 29 32 33 34 36 37 37 39 40 42 43 44 45 45 46 46 46 45 44 42
9 9 10 11 12 13 14 15 15 15 15 15 15 16 17 17 18 19 21 23 24 25 27 29 31 32 34 35 36 37 38 39 41 42 43 44 45 45 45 45 45 44 42 41
8 9 9 10 9 11 13 13 13 14 15 15 15 16 16 18 19 21 22 23 25 27 28 30 32 33 34 35 36 37 39 40 41 43 43 44 44 45 45 44 43 42 41 40
Wind_Direction
271 272 265 269 271 271 266 267 270 277 284 259 275 291 303 310 325 340 352 6 8 12 15 15 17 18 20 22 22 27 25 21 15 12 13 12 14 10 201 210 232 220 213 213
279 272 261 263 265 266 263 263 264 263 263 262 278 280 290 327 352 0 6 13 17 21 25 26 28 27 28 29 27 30 31 34 35 33 29 33 44 50 45 33 114 174 196 207
265 279 279 272 270 257 260 257 260 256 248 231 234 202 59 24 25 21 23 22 25 29 31 32 33 31 34 34 34 35 37 39 41 43 41 43 53 58 68 70 84 105 150 179
269 278 267 281 262 263 253 252 235 211 203 200 184 161 128 81 54 45 35 34 35 36 39 37 36 36 37 37 38 39 39 40 40 43 45 48 54 57 61 57 67 77 80 167
261 269 276 250 254 245 229 229 207 185 183 176 163 147 114 92 75 65 59 54 52 48 47 44 42 41 41 41 41 40 40 40 42 43 45 48 49 52 55 49 59 63 44 32
267 274 269 234 212 223 233 238 199 186 184 178 177 205 159 118 92 79 70 62 56 52 49 47 45 45 45 44 43 43 41 40 41 42 44 45 46 50 55 56 54 53 49 33
245 251 247 230 225 234 244 236 195 192 188 186 189 178 151 135 111 94 82 69 60 56 54 50 47 47 46 44 42 40 40 41 41 40 40 40 42 43 43 43 45 42 37 40
239 244 246 236 232 246 239 206 192 176 175 164 164 156 151 142 126 106 87 74 63 59 55 51 47 44 43 40 37 37 37 37 36 36 37 36 35 35 35 33 31 28 24 21
240 241 240 241 240 231 222 200 184 172 169 166 162 160 157 148 135 118 99 82 72 62 54 46 42 39 36 31 30 30 30 30 29 29 28 27 27 26 23 21 19 15 11 6
236 235 240 239 233 225 206 193 181 173 170 168 164 163 159 153 144 127 106 86 68 59 49 39 34 32 29 27 25 25 26 24 23 21 20 19 18 17 15 12 9 4 358 354
241 237 241 237 223 208 195 185 177 174 173 172 170 169 166 162 155 145 127 101 69 49 38 32 28 26 24 22 21 20 19 17 14 12 10 8 7 5 4 2 359 354 350 345
241 229 237 218 209 199 193 190 183 180 177 177 174 173 172 169 164 152 131 90 49 31 25 23 21 18 15 13 12 11 9 7 5 2 1 358 356 352 353 351 349 347 344 340
240 225 229 206 198 197 194 190 188 185 183 177 178 179 174 167 162 152 130 57 20 14 10 9 8 4 0 3 3 1 360 357 356 355 353 352 349 346 343 342 341 340 339 338
213 206 207 198 196 193 191 190 187 186 185 184 183 181 180 182 182 180 192 323 340 345 349 347 348 350 350 350 351 351 350 347 346 345 344 343 342 341 339 337 335 334 334 334
215 231 209 196 190 190 191 190 190 189 188 187 190 190 190 190 197 209 236 263 300 322 329 333 334 337 338 338 340 341 342 341 339 339 339 338 337 336 335 334 332 330 329 329
217 207 198 196 195 193 193 194 193 192 192 193 194 195 196 198 201 215 236 267 277 301 314 321 326 327 329 331 332 333 334 335 334 334 333 333 333 332 331 330 329 328 327 326
208 206 202 201 198 197 198 197 196 196 196 198 196 197 200 204 212 224 234 251 271 294 304 312 318 323 324 323 326 328 329 329 330 330 330 330 329 329 328 327 326 325 324 323
211 208 205 203 199 198 198 199 199 199 200 198 199 203 209 217 219 225 232 250 269 289 302 309 313 316 319 321 321 322 324 325 326 326 326 327 326 325 325 324 324 323 322 321
207 205 204 203 201 201 201 200 201 201 200 201 204 209 214 220 220 225 240 258 274 284 299 306 310 314 315 317 319 319 321 322 323 323 323 323 323 323 323 322 321 321 320 319
206 204 201 200 201 202 200 201 202 203 203 203 207 213 218 223 227 236 252 269 283 291 297 305 309 311 314 316 317 317 318 320 320 321 321 321 321 321 321 320 320 319 319 318
203 203 198 196 197 199 203 205 205 206 206 208 214 219 225 229 236 247 260 270 282 291 299 304 308 310 314 316 316 317 318 318 319 320 320 320 320 320 320 320 319 319 318 318
196 196 197 198 200 203 205 205 204 204 207 212 218 223 230 237 246 258 267 279 284 293 300 305 307 310 313 315 315 316 317 318 318 319 319 319 320 320 320 320 319 319 318 318
196 196 199 200 202 202 204 205 206 208 213 219 223 229 237 246 254 264 270 278 287 294 301 304 307 311 314 314 314 315 316 317 318 318 319 319 319 320 320 320 319 319 319 318
199 199 201 202 203 205 207 209 210 214 219 225 232 238 247 254 263 270 277 283 290 296 300 303 307 310 313 314 315 315 316 317 318 318 319 319 320 320 320 320 320 319 319 318
198 201 205 207 209 213 212 212 215 220 226 233 238 245 254 262 268 273 282 289 294 298 301 304 307 310 312 313 315 315 316 317 318 319 320 320 320 320 320 320 320 320 319 318
205 210 213 215 220 219 218 219 224 228 234 241 246 251 259 267 273 280 286 291 295 299 301 304 307 310 312 313 314 315 317 318 319 319 320 320 321 321 321 321 321 320 320 319
213 214 215 218 218 217 218 221 228 234 239 246 252 258 266 273 279 284 289 294 297 300 303 305 308 310 312 314 315 316 317 319 320 320 321 321 322 322 322 322 322 321 320 320